Regional Weather Roundup
Issued by NWS

Home | Current Version | Previous Version | Text Only | Print | Product List | Glossary On
Versions: 1 2 3 4 5 6 7 8 9 10 11 12 13 14 15 16 17 18 19 20 21 22 23 24 25 26 27 28 29 30 31 32 33 34 35 36 37 38 39 40 41 42 43 44 45 46 47 48 49 50
000
ASUS43 KDTX 210801
RWRMI
MICHIGAN HOURLY REGIONAL WEATHER ROUNDUP
NATIONAL WEATHER SERVICE DETROIT/PONTIAC MI
300 AM EST SUN DEC 21 2014

NOTE: "FAIR" INDICATES FEW OR NO CLOUDS BELOW 12,000 FEET WITH NO
SIGNIFICANT WEATHER AND/OR OBSTRUCTION TO VISIBILITY.

MIZ047>049-052>055-059>063-066>070-074>076-081>083-210900-
SOUTHEAST LOWER MICHIGAN

CITY           SKY/WX    TMP DP  RH WIND       PRES   REMARKS
ADRIAN         CLOUDY    24  22  91 CALM      30.29R FOG
ALMA           CLOUDY    28  26  89 S3        30.27R
ANN ARBOR      CLOUDY    23  21  92 CALM      30.28R
BAD AXE        CLEAR     16  15  96 CALM      30.29R
CARO           CLOUDY    19  17  93 CALM      30.28S
DETROIT CITY   MOCLDY    31  19  61 CALM      30.30R
DETROIT        CLOUDY    29  23  78 CALM      30.30R
FLINT          CLOUDY    24  20  84 CALM      30.28R
GROSSE ILE     CLOUDY    30  25  80 CALM      30.28R
HILLSDALE      CLOUDY    28  25  89 CALM      30.26R
HOWELL         CLOUDY    25  23  93 CALM      30.26R

CITY           SKY/WX    TMP DP  RH WIND       PRES   REMARKS
JACKSON        CLOUDY    27  22  81 S3        30.27R
LAMBERTVILLE   CLEAR     27  21  80 CALM      30.30R FOG
LANSING        CLOUDY    28  23  81 S5        30.28R WCI  23
LAPEER         FAIR      18  17  95 CALM      30.29R
MASON          CLOUDY    27  23  85 CALM      30.27R
MONROE         PTCLDY    28  25  86 SW3       30.28R
MT. CLEMENS    CLOUDY    30  23  75 W2        30.28R
PONTIAC        PTCLDY    21  18  88 CALM      30.26R
PORT HOPE        N/A     23  18  81 SW5       30.27S WCI  17
PORT HURON     CLOUDY    25  23  93 CALM      30.30R
TRI CITIES     CLOUDY    28  23  81 S5        30.28S WCI  23
TROY           CLEAR     29  22  76 CALM      30.30S
SAGINAW HB     CLOUDY    27  27 100 CALM      30.28S
$$
MIZ043>046-050>051-056>058-064>065-071>073-077>080-210900-
SOUTHWEST LOWER MICHIGAN

CITY           SKY/WX    TMP DP  RH WIND       PRES   REMARKS
BATTLE CREEK   CLOUDY    30  27  88 S3        30.27R FOG
BENTON HARBOR  CLOUDY    30  26  85 S7        30.27R WCI  23
BIG RAPIDS     CLOUDY    29  29 100 CALM      30.23R FOG
COLDWATER      CLOUDY    30  28  93 MISG      30.27R FOG
FREMONT        CLOUDY    30  29  96 CALM      30.24R FOG
HOLLAND        CLOUDY    33  27  78 S8        30.26R WCI  26
GRAND RAPIDS   CLOUDY    30  27  88 S6        30.26R FOG     WCI  24
IONIA          CLOUDY    30  27  89 S3        30.26R
KALAMAZOO      CLOUDY    30  27  88 S5        30.27R FOG     WCI  25
LUDINGTON      CLOUDY    31  28  88 SE3       30.24R FOG
MARSHALL       CLOUDY    28  26  89 CALM      30.26R
MOUNT PLEASANT CLOUDY    28  26  89 CALM      30.26R
MUSKEGON       CLOUDY    32  28  85 SE5       30.25R FOG     WCI  27
SOUTH HAVEN    CLOUDY    32  27  84 S5        30.26S WCI  27
$$
MIZ016>042-210900-
NORTHERN LOWER MICHIGAN

CITY           SKY/WX    TMP DP  RH WIND       PRES   REMARKS
ALPENA         PTCLDY    22  20  92 CALM      30.27R
BEAVER ISLAND  CLOUDY    31  27  83 CALM      30.23R
BELLAIRE       CLOUDY    27  23  84 CALM      30.25S
CADILLAC       CLOUDY    27  24  89 CALM      30.20S
CHARLEVOIX     CLOUDY    27  22  81 SE5       30.26S WCI  22
FRANKFORT      CLOUDY    29  27  92 CALM      30.23R
GAYLORD        CLOUDY    20  18  92 CALM      30.21S
GRAYLING       CLOUDY    21  19  93 CALM      30.24R
HARBOR SPRINGS CLOUDY    23  20  89 CALM      30.24S
HOUGHTON LAKE  CLOUDY    22  20  92 CALM      30.24R
MANISTEE       CLOUDY    28  25  86 SE3       30.24R
OSCODA         PTCLDY    12  10  92 CALM      30.28R
PELLSTON       CLOUDY    23  20  88 CALM      30.25R
ROGERS CITY    MOCLDY    19  19  96 CALM      30.28R
TRAVERSE CITY  CLOUDY    28  22  78 S5        30.23S WCI  23
$$
MIZ007>008-015-210900-
EASTERN UPPER MICHIGAN

CITY           SKY/WX    TMP DP  RH WIND       PRES   REMARKS
KINROSS        CLOUDY    25  23  93 SE7       30.24R WCI  17
MACKINAC ISLAN CLOUDY    28  21  76 S6        30.24R WCI  21
NEWBERRY       CLOUDY    26  23  91 S9        30.21R WCI  16
S. S. MARIE    CLOUDY    24  20  84 CALM      30.23S
MUNISING         N/A     30  23  75 S5        30.19R WCI  25
$$
MIZ004>006-011>014-085-210900-
CENTRAL UPPER MICHIGAN

CITY           SKY/WX    TMP DP  RH WIND       PRES   REMARKS
MANISTIQUE     CLOUDY    27  26  97 CALM      30.20S
ESCANABA       CLOUDY    28  23  80 CALM      30.20R
MENOMINEE      CLOUDY    28  25  86 CALM      30.20R
SAWYER-GWINN   CLOUDY    26  23  91 S6        30.15R WCI  19
$$
MIZ001>003-009>011-084-210900-
WESTERN UPPER MICHIGAN

CITY           SKY/WX    TMP DP  RH WIND       PRES   REMARKS
IRON MOUNTAIN  CLOUDY    27  23  85 S6        30.15R WCI  20
HOUGHTON       CLOUDY    29  25  85 S7        30.10S WCI  22
COPPER HARBOR    N/A     32  26  78 W5        30.13S WCI  27
IRONWOOD       CLOUDY    30  27  86 S7        30.04S WCI  23
$$

ABBREVIATIONS USED IN REMARKS
   TC - TEMPERATURE IN CELSIUS
  WCI - WIND CHILL INDEX
   HX - HEAT INDEX
  VSB - VISIBILITY




USA.gov is the U.S. government's official web portal to all federal, state and local government web resources and services.